Flag for Germany Weather past 2 weeks in Zweibrücken, Rhineland-Palatinate, Germany

Now
61 °F

Sunny.


Feels Like: 61 °F
Forecast: 45 / 70 °F
Wind: 1 mph from North

Location: Zweibrucken - Rheinland-Pfalz

Current Time: Sep 1, 2014 at 9:24:41 PM

Latest Report: Sep 1, 2014 at 8:50 PM


Visibility: 10 mi

Pressure: 30.15 "Hg

Humidity: 72%

Dew point: 52 °F

Location of ZweibrückenLocation

Historic Weather in Zweibrücken — Graph

°F

Zweibrücken temperature yesterday

Maximum temperature yesterday: 61 °F (at 12:20 AM)
Minimum temperature yesterday: 54 °F (at 6:50 PM)
Average temperature yesterday: 58 °F

Past Weeks' High & Low Weather Summary

 TemperatureHumidityPressure
High73 °F (Aug 29, 4:20 PM)100% (Aug 19, 5:20 AM)30.18 "Hg (Aug 19, 5:20 AM)
Low45 °F (Aug 21, 6:50 AM)43% (Aug 22, 1:50 PM)29.65 "Hg (Aug 26, 5:20 AM)
Average59 °F78%30.00 "Hg
* Reported Aug 17 7:20 PM — Sep 1 7:50 PM, Zweibrücken, Weather by CustomWeather, © 2014

Note: Actual official high and low records may vary slightly from our data, if they occured in-between our weather recording intervals... More about our weather records

Advertising

Zweibrücken weather history for previous 24 hours

 ConditionsComfort  
Time TempWeatherWind HumidityBarometerVisibility
7:50 PM
Sep 1
61 °FSunny.2 mph72%30.15 "Hg10 mi
7:20 PM61 °FSunny.2 mph72%30.15 "Hg10 mi
6:50 PM61 °FPartly sunny.2 mph68%30.15 "HgN/A
6:20 PM61 °FOvercast.3 mph72%30.15 "HgN/A
5:50 PM63 °FPartly sunny.3 mph68%30.15 "HgN/A
5:20 PM61 °FPartly sunny.5 mph68%30.15 "HgN/A
4:50 PM61 °FPartly sunny.7 mph68%30.15 "HgN/A
4:20 PM61 °FPartly sunny.7 mph72%30.15 "HgN/A
3:50 PM61 °FBroken clouds.7 mph72%30.15 "HgN/A
3:20 PM61 °FPassing clouds.6 mph68%30.15 "HgN/A
2:50 PM61 °FBroken clouds.6 mph68%30.15 "HgN/A
2:20 PM63 °FPartly sunny.3 mph64%30.15 "HgN/A
1:50 PM61 °FScattered clouds.3 mph68%30.15 "HgN/A
1:20 PM59 °FPartly sunny.7 mph72%30.15 "HgN/A
12:50 PM59 °FBroken clouds.6 mph72%30.18 "HgN/A
12:20 PM59 °FBroken clouds.7 mph68%30.18 "HgN/A
11:50 AM59 °FScattered clouds.5 mph68%30.18 "HgN/A
11:20 AM59 °FScattered clouds.7 mph72%30.18 "HgN/A
10:20 AM55 °FBroken clouds.6 mph82%30.15 "HgN/A
9:50 AM55 °FScattered clouds.7 mph82%30.15 "HgN/A
9:20 AM54 °FPassing clouds.2 mph88%30.15 "HgN/A
8:50 AM52 °FPassing clouds.3 mph94%30.12 "HgN/A
8:20 AM52 °FPassing clouds.3 mph94%30.12 "Hg4 mi
7:50 AM52 °FPassing clouds.3 mph94%30.12 "Hg4 mi
5:20 AM52 °FFog.6 mph94%30.09 "Hg2 mi
4:50 AM50 °FPassing clouds.5 mph100%30.09 "Hg3 mi
3:50 AM52 °FPassing clouds.5 mph100%30.09 "Hg5 mi
3:20 AM52 °FClear.3 mph100%30.09 "Hg4 mi
2:50 AM52 °FFog.5 mph100%30.07 "Hg1 mi
2:20 AM52 °FPassing clouds.3 mph100%30.07 "Hg4 mi
1:50 AM54 °FPassing clouds.7 mph94%30.07 "HgN/A
1:20 AM54 °FPassing clouds.8 mph94%30.07 "HgN/A
12:50 AM54 °FLight rain. Passing clouds.7 mph100%30.07 "HgN/A
12:20 AM54 °FClear.5 mph100%30.07 "Hg10 mi
Weather by CustomWeather, © 2014

See weather overviewHow to use our weather pages